Find Maqsat-3

NORAD ID: 25503 Int'l Des: 1998-059 Owner: ESA Country: I-ESA operational
MEOELLIPTICALHEO_ELLIPTICAL

Live-Position

3D-Globus wird geladen...

Über Maqsat-3

Beschreibung wird geladen...

Nächste Überflüge

Passes for default location (London). Set your location on the main map for personalized predictions.

Höhenverlauf

Loading altitude history...

Zweizeiliger Elementsatz

1 25503U 98059A 26105.10057184 -.00000252 00000-0 -46871-2 0 9995
2 25503 7.2579 279.2928 7008432 107.7692 334.7926 2.24578111225545
Epoch: 15. Apr. 2026 • Age: 24 hours

Aktueller Status

Höhe 19834.0 km
Geschwindigkeit 3.77 km/s
Subsatellitenpunkt -6.70°S, 71.43°W
Startdatum 21. Okt. 1998
Alter 27.4 years
Typ other

Technische Details

Klassifizierung Payload
Masse 2730.00 kg
Trockenmasse 2730.00 kg
Gesamtmasse 5420.00 kg
Länge 2.50 m
Durchmesser 2.00 m
Spannweite 2.50 m
Form Cyl
Hersteller KTHR
Bus-Typ Maqsat-3
Phasenstatus Attached in Orbit
Besitzer/Staat ESA/I-ESA

Most Searched